Vorticity
nan nan nan nan nan nan nan nan nan nan nan nan nan nan nan nan nan nan nan nan nan nan
nan 7 8 9 6 9 9 9 10 9 9 10 10 10 7 9 12 10 9 8 8 nan
nan 9 7 9 10 8 8 9 9 9 10 10 9 10 8 10 11 9 10 9 9 nan
nan 9 9 8 9 9 10 10 7 10 10 10 10 10 10 10 11 9 8 10 11 nan
nan 10 9 9 8 9 10 8 9 10 9 10 10 9 11 10 8 9 9 9 9 nan
nan 9 8 10 11 8 9 8 9 7 8 8 10 11 10 10 8 9 10 9 10 nan
nan 9 11 10 11 10 9 10 9 8 9 11 10 11 9 9 8 9 9 10 9 nan
nan 11 10 11 11 11 9 11 12 10 10 11 9 13 11 8 9 8 8 10 9 nan
nan 11 10 11 10 10 11 12 10 11 9 8 9 11 12 10 10 9 9 8 9 nan
nan 10 10 9 10 11 10 11 10 12 10 7 11 9 8 9 11 9 10 10 10 nan
nan 10 10 10 10 9 9 9 11 10 9 8 14 11 7 7 8 11 11 11 8 nan
nan 10 9 9 9 8 9 10 9 10 8 8 12 12 8 6 8 11 8 8 10 nan
nan 11 10 11 7 8 10 8 9 10 10 10 9 12 7 5 8 10 8 9 4 nan
nan nan nan nan nan nan nan nan nan nan nan nan nan nan nan nan nan nan nan nan nan nan
CAPE
1626 1541 2171 1764 1857 1624 727 579 713 765 683 232 338 519 1241 1091 1826 1698 1570 930 608 362
1797 1760 1484 1511 1710 2323 1464 888 877 861 1140 1201 1359 1456 1621 2086 2062 1915 1371 599 313 351
1639 1757 1682 1522 1549 1472 1851 1122 863 1252 1434 1425 1144 1499 1875 2193 1876 1701 692 56 212 242
1568 1508 1585 1353 1534 1568 1706 1397 1466 1564 1594 1709 1694 1778 1890 1625 1397 872 141 39 44 155
1594 1475 1383 1520 1482 1661 1818 1374 1510 1722 1710 1708 1843 1722 1758 1479 678 214 82 1 17 16
1485 1421 1247 1344 1577 1494 1598 1538 1391 1902 1719 1581 1698 1467 1353 682 284 47 5 0 0 0
1381 1291 1269 1655 1889 1586 1801 1714 1558 1701 1632 1281 1713 1214 598 229 46 5 0 0 0 0
1511 1442 1434 1557 1617 1610 1807 1729 1778 1649 1477 1462 1011 766 255 105 18 0 0 0 0 0
1803 1694 1490 1642 1603 1521 1589 1222 1496 1412 1513 611 193 0 0 1 0 0 0 0 0 0
2072 1733 1642 1582 1527 1774 1692 1774 1676 1596 1402 696 88 0 0 0 0 0 0 0 0 0
2022 1755 1700 1541 1591 1712 1677 1675 1894 1479 976 650 98 0 0 0 0 0 0 0 0 0
1934 1673 1633 1580 1588 1535 1510 1600 1495 1065 839 256 0 0 0 0 0 0 0 0 0 0
2197 1657 1516 1716 1761 1564 1576 1541 1017 1412 514 522 285 0 0 0 0 0 0 0 0 0
2089 2068 1743 1585 1568 1602 1505 1017 1645 629 1538 919 581 0 0 0 0 0 0 0 0 0